Location: Unspecified
(0.0000°N, 0.0000°E)
Time: 18:05:44
(UTC+00:00)

Courier 1B Rocket - Pass Details

Date: 04 October 2020
Orbit: 921 x 1202 km, 28.2° (Epoch: 27 October)

Event Time Altitude Azimuth Distance (km) Brightness Sun altitude
Rises 15:16:14 0° 253° (WSW) 3,755 9.0 37.9°
Reaches altitude 10° 15:20:36 10° 227° (SW) 2,872 8.3 36.8°
Maximum altitude 15:23:48 13° 200° (SSW) 2,674 7.7 36.0°
Drops below altitude 10° 15:27:06 10° 173° (S) 2,971 7.6 35.2°
Sets 15:31:49 0° 147° (SSE) 3,994 8.0 34.0°
